Change the Weather History Date:

Monday, February 10, 2014

  Actual Average Record
Temperature  
Mean Temperature 82 °F -  
Max Temperature 86 °F 88 °F - ()
Min Temperature 77 °F 74 °F - ()
Cooling Degree Days 16    
Growing Degree Days 32 (Base 50)    
Moisture  
Dew Point 75 °F    
Average Humidity 79    
Maximum Humidity 100    
Minimum Humidity 63    
Precipitation  
Precipitation 0.04 in 0.28 in - ()
Sea Level Pressure  
Sea Level Pressure 29.83 in    
Wind  
Wind Speed 12 mph ()    
Max Wind Speed 21 mph    
Max Gust Speed -    
Visibility 7.0 miles    
Events Rain    
T = Trace of Precipitation, MM = Missing Value Source: Averaged Metar Reports

Daily Weather History Graph

Daily Weather History Graph

Search for Another Location

Airport or City:

Trip Planner

Search our weather history database for the weather conditions in past years. The results will help you decide how hot, cold, wet, or windy it might be!

Date:

Astronomy

Feb. 10, 2014 Rise Set
Actual Time 6:02 AM AEST 6:51 PM AEST
Civil Twilight 5:39 AM AEST 7:14 PM AEST
Nautical Twilight 5:13 AM AEST 7:40 PM AEST
Astronomical Twilight 4:45 AM AEST 8:08 PM AEST
Moon 3:17 PM AEST (2/10) 1:55 AM AEST (2/10)
Length of Visible Light 13h 34m
Length of Day
12h 48m
Waxing Gibbous, 80% of the Moon is Illuminated
Feb 10
Waxing Gibbous
Feb 15
Full
Feb 23
Last Quarter
Mar 1
New
Mar 8
First Quarter

Hourly Weather History & Observations

Time (AEST) Temp. Heat Index Dew Point Humidity Pressure Visibility Wind Dir Wind Speed Gust Speed Precip Events Conditions
12:00 AM 80 °F - 77 °F 89% 29.87 in - SE 9.2 mph - -  
12:00 AM 80.6 °F 87.1 °F 77.0 °F 89% 29.86 in 6.2 mi SE 9.2 mph - N/A   Scattered Clouds
12:30 AM 78.8 °F - 77.0 °F 94% 29.86 in 6.2 mi SE 8.1 mph - N/A   Mostly Cloudy
1:00 AM 80 °F - 77 °F 88% 29.86 in - ESE 10.4 mph - -  
1:00 AM 78.8 °F - 77.0 °F 94% 29.83 in 6.2 mi ESE 10.4 mph - N/A   Mostly Cloudy
1:30 AM 78.8 °F - 77.0 °F 94% 29.83 in 6.2 mi SE 12.7 mph - N/A   Scattered Clouds
2:00 AM 78.8 °F - 77.0 °F 94% 29.83 in 6.2 mi SE 9.2 mph - N/A Rain Light Rain Showers
2:30 AM 78.8 °F - 75.2 °F 89% 29.83 in 6.2 mi ESE 10.4 mph - N/A Rain Light Rain Showers
3:00 AM 78 °F - 76 °F 92% 29.81 in - SSE 8.1 mph - -  
3:00 AM 78.8 °F - 77.0 °F 94% 29.80 in 6.2 mi SSE 8.1 mph - N/A   Scattered Clouds
3:24 AM 78.8 °F - 77.0 °F 94% 29.80 in 3.7 mi SE 15.0 mph - N/A Rain Heavy Rain Showers
3:30 AM 77.0 °F - 77.0 °F 100% 29.80 in - SE 12.7 mph - N/A Rain Rain Showers
4:00 AM 78 °F - 76 °F 94% 29.82 in - SE 10.4 mph - -  
4:00 AM 78.8 °F - 77.0 °F 94% 29.80 in 6.2 mi SE 10.4 mph - N/A   Mostly Cloudy
4:30 AM 78.8 °F - 77.0 °F 94% 29.80 in 6.2 mi SE 10.4 mph - N/A   Scattered Clouds
5:00 AM 78.8 °F - 77.0 °F 94% 29.80 in 6.2 mi SE 9.2 mph - N/A   Scattered Clouds
5:30 AM 78.8 °F - 77.0 °F 94% 29.80 in 6.2 mi SE 9.2 mph - N/A Rain Light Rain Showers
6:00 AM 78 °F - 76 °F 92% 29.83 in 9 mi SE 10.4 mph - -   Partly Cloudy
6:00 AM 78.8 °F - 77.0 °F 94% 29.83 in 6.2 mi SE 10.4 mph - N/A   Mostly Cloudy
6:30 AM 78.8 °F - 77.0 °F 94% 29.83 in 6.2 mi SE 10.4 mph - N/A Rain Light Rain Showers
7:00 AM 80 °F - 76 °F 84% 29.86 in - SE 10.4 mph - -  
7:00 AM 80.6 °F 86.2 °F 75.2 °F 84% 29.83 in 6.2 mi SE 10.4 mph - N/A   Mostly Cloudy
7:30 AM 80.6 °F 86.2 °F 75.2 °F 84% 29.83 in 6.2 mi ESE 12.7 mph - N/A   Mostly Cloudy
8:00 AM 80.6 °F 86.2 °F 75.2 °F 84% 29.86 in 6.2 mi ESE 10.4 mph - N/A Rain Light Rain Showers
8:30 AM 82.4 °F 90.9 °F 77.0 °F 84% 29.86 in 6.2 mi ESE 12.7 mph - N/A Rain Light Rain Showers
9:00 AM 83 °F - 76 °F 74% 29.88 in 11 mi ESE 16.1 mph - -   Partly Cloudy
9:00 AM 84.2 °F 92.3 °F 75.2 °F 74% 29.86 in 6.2 mi ESE 16.1 mph - N/A   Mostly Cloudy
9:30 AM 84.2 °F 92.3 °F 75.2 °F 74% 29.86 in 6.2 mi East 16.1 mph - N/A Rain Light Rain Showers
10:00 AM 85 °F - 76 °F 67% 29.89 in - East 12.7 mph - -  
10:00 AM 84.2 °F 92.3 °F 75.2 °F 74% 29.86 in 6.2 mi East 12.7 mph - N/A   Scattered Clouds
10:30 AM 86.0 °F 95.1 °F 75.2 °F 70% 29.86 in 6.2 mi ENE 17.3 mph - N/A   Scattered Clouds
11:00 AM 86.0 °F 96.9 °F 77.0 °F 74% 29.86 in 6.2 mi East 17.3 mph - N/A   Scattered Clouds
11:30 AM 86.0 °F 96.9 °F 77.0 °F 74% 29.86 in 6.2 mi ENE 17.3 mph - N/A   Scattered Clouds
12:00 PM 86 °F - 75 °F 64% 29.85 in 16 mi East 19.6 mph - -   Partly Cloudy
12:00 PM 86.0 °F 95.1 °F 75.2 °F 70% 29.83 in 6.2 mi East 19.6 mph - N/A   Scattered Clouds
12:30 PM 86.0 °F 96.9 °F 77.0 °F 74% 29.83 in 6.2 mi ENE 18.4 mph - N/A   Scattered Clouds
1:00 PM 86 °F - 76 °F 66% 29.85 in - ENE 19.6 mph - -  
1:00 PM 86.0 °F 96.9 °F 77.0 °F 74% 29.83 in 6.2 mi ENE 19.6 mph - N/A   Scattered Clouds
1:30 PM 86.0 °F 96.9 °F 77.0 °F 74% 29.83 in 6.2 mi East 18.4 mph - N/A   Scattered Clouds
2:00 PM 86.0 °F 96.9 °F 77.0 °F 74% 29.83 in 6.2 mi ENE 20.7 mph - N/A   Scattered Clouds
2:30 PM 86.0 °F 95.1 °F 75.2 °F 70% 29.80 in 6.2 mi ENE 18.4 mph - N/A   Scattered Clouds
3:00 PM 86 °F - 75 °F 63% 29.81 in 16 mi ENE 17.3 mph - -   Haze
3:00 PM 86.0 °F 95.1 °F 75.2 °F 70% 29.80 in 6.2 mi ENE 17.3 mph - N/A   Scattered Clouds
3:30 PM 86.0 °F 95.1 °F 75.2 °F 70% 29.80 in 6.2 mi ENE 18.4 mph - N/A   Scattered Clouds
4:00 PM 85 °F - 75 °F 65% 29.80 in - ENE 17.3 mph - -  
4:00 PM 86.0 °F 95.1 °F 75.2 °F 70% 29.77 in 6.2 mi ENE 17.3 mph - N/A   Scattered Clouds
4:30 PM 86.0 °F 95.1 °F 75.2 °F 70% 29.77 in 6.2 mi ENE 18.4 mph - N/A   Scattered Clouds
5:00 PM 86.0 °F 93.4 °F 73.4 °F 66% 29.77 in 6.2 mi East 18.4 mph - N/A   Scattered Clouds
5:30 PM 84.2 °F 89.6 °F 71.6 °F 66% 29.77 in 6.2 mi East 19.6 mph - N/A   Mostly Cloudy
6:00 PM 83 °F - 72 °F 63% 29.79 in 16 mi East 16.1 mph - -   Haze
6:00 PM 82.4 °F 88.2 °F 73.4 °F 74% 29.77 in 6.2 mi East 16.1 mph - N/A   Mostly Cloudy
6:30 PM 82.4 °F 87.2 °F 71.6 °F 70% 29.80 in 6.2 mi East 15.0 mph - N/A   Mostly Cloudy
7:00 PM 82 °F - 71 °F 63% 29.82 in - East 15.0 mph - -  
7:00 PM 82.4 °F 87.2 °F 71.6 °F 70% 29.80 in 6.2 mi East 15.0 mph - N/A   Scattered Clouds
7:30 PM 80.6 °F 84.6 °F 71.6 °F 74% 29.80 in 6.2 mi East 15.0 mph - N/A   Partly Cloudy
8:00 PM 80.6 °F 85.4 °F 73.4 °F 79% 29.83 in 6.2 mi East 15.0 mph - N/A   Partly Cloudy
8:30 PM 80.6 °F 85.4 °F 73.4 °F 79% 29.83 in 6.2 mi East 15.0 mph - N/A   Scattered Clouds
9:00 PM 81 °F - 73 °F 72% 29.85 in 16 mi East 15.0 mph - -   Haze
9:00 PM 80.6 °F 85.4 °F 73.4 °F 79% 29.83 in 6.2 mi East 15.0 mph - N/A   Partly Cloudy
9:30 PM 80.6 °F 85.4 °F 73.4 °F 79% 29.86 in 6.2 mi East 11.5 mph - N/A   Partly Cloudy
10:00 PM 81 °F - 73 °F 71% 29.88 in - ESE 8.1 mph - -  
10:00 PM 80.6 °F 85.4 °F 73.4 °F 79% 29.86 in 6.2 mi ESE 8.1 mph - N/A   Scattered Clouds
10:30 PM 80.6 °F 85.4 °F 73.4 °F 79% 29.86 in 6.2 mi ESE 10.4 mph - N/A   Scattered Clouds
11:00 PM 80.6 °F 85.4 °F 73.4 °F 79% 29.86 in 6.2 mi ESE 9.2 mph - N/A   Mostly Cloudy
11:30 PM 80.6 °F 85.4 °F 73.4 °F 79% 29.86 in 6.2 mi ESE 9.2 mph - N/A   Unknown